User: anonymous   Login
Location: Vale
(35.4830°N, 81.3830°W)
Time: 17:53:51
(UTC-05:00)
Language:

Oscar 11 - Orbit

View from above orbital plane
View from above orbital plane
View from above satellite
View from above satellite

Ground track
Ground track

The orbit data is extracted from the following two-line orbital elements,

1 14781U 84021B   18052.55491722  .00000070  00000-0  14869-4 0  9996
2 14781  97.6652  93.6067 0009986 101.1066 259.1272 14.82981732827309
Epoch (UTC): 21 February 2018 13:19:04
Eccentricity: 0.0009986
inclination: 97.6652°
perigee height: 613 km
apogee height: 627 km
right ascension of ascending node: 93.6067°
argument of perigee: 101.1066°
revolutions per day: 14.82981732
mean anomaly at epoch: 259.1272°
orbit number at epoch: 82730

The dashed part of the orbit path shows where the satellite is in the earth's shadow,  

DLR